TimeEST,TemperatureF,Dew PointF,Humidity,Sea Level PressureIn,VisibilityMPH,Wind Direction,Wind SpeedMPH,Gust SpeedMPH,PrecipitationIn,Events,Conditions,WindDirDegrees,DateUTC
12:56 AM,41.0,39.0,93,30.13,0.5,East,3.5,-,N/A,Fog,Fog,80,2013-01-12 05:56:00
1:17 AM,41.0,39.2,93,30.13,1.0,ENE,4.6,-,N/A,,Overcast,70,2013-01-12 06:17:00
1:19 AM,41.0,39.2,93,30.13,0.8,East,4.6,-,N/A,,Overcast,80,2013-01-12 06:19:00
1:35 AM,42.8,39.2,87,30.13,1.5,ENE,3.5,-,N/A,,Overcast,60,2013-01-12 06:35:00
1:44 AM,42.8,39.2,87,30.14,2.5,NE,3.5,-,N/A,,Overcast,50,2013-01-12 06:44:00
1:56 AM,42.1,39.9,92,30.14,2.5,Calm,Calm,-,N/A,,Overcast,0,2013-01-12 06:56:00
2:16 AM,42.8,39.2,87,30.14,1.5,Calm,Calm,-,N/A,,Overcast,0,2013-01-12 07:16:00
2:25 AM,42.8,39.2,87,30.14,1.2,Calm,Calm,-,N/A,,Overcast,0,2013-01-12 07:25:00
2:54 AM,42.8,39.2,87,30.14,0.8,Calm,Calm,-,N/A,,Overcast,0,2013-01-12 07:54:00
2:56 AM,42.1,39.0,89,30.15,0.8,Calm,Calm,-,N/A,,Overcast,0,2013-01-12 07:56:00
3:07 AM,42.8,39.2,87,30.15,1.0,Calm,Calm,-,N/A,,Overcast,0,2013-01-12 08:07:00
3:18 AM,42.8,39.2,87,30.14,0.8,Calm,Calm,-,N/A,,Overcast,0,2013-01-12 08:18:00
3:56 AM,42.1,39.9,92,30.14,1.0,Calm,Calm,-,N/A,,Overcast,0,2013-01-12 08:56:00
3:59 AM,42.8,39.2,87,30.13,2.0,Calm,Calm,-,N/A,,Overcast,0,2013-01-12 08:59:00
4:22 AM,42.8,39.2,87,30.13,1.2,Calm,Calm,-,N/A,,Overcast,0,2013-01-12 09:22:00
4:33 AM,42.8,39.2,87,30.13,0.8,Calm,Calm,-,N/A,,Overcast,0,2013-01-12 09:33:00
4:56 AM,42.1,39.9,92,30.14,0.5,ENE,5.8,-,N/A,Fog,Fog,70,2013-01-12 09:56:00
5:56 AM,42.1,39.0,89,30.15,0.2,East,4.6,-,N/A,Fog,Fog,90,2013-01-12 10:56:00
6:56 AM,41.0,39.0,93,30.17,0.5,ENE,5.8,-,N/A,Fog,Fog,70,2013-01-12 11:56:00
7:56 AM,42.1,39.0,89,30.19,0.2,NE,3.5,-,N/A,Fog,Fog,50,2013-01-12 12:56:00
8:56 AM,41.0,39.0,93,30.19,0.2,East,3.5,-,N/A,Fog,Fog,90,2013-01-12 13:56:00
9:56 AM,42.1,39.9,92,30.21,0.2,Calm,Calm,-,N/A,Fog,Fog,0,2013-01-12 14:56:00
10:56 AM,42.1,39.9,92,30.20,0.2,East,4.6,-,N/A,Fog,Fog,80,2013-01-12 15:56:00
11:56 AM,43.0,41.0,93,30.18,0.2,Calm,Calm,-,N/A,Fog,Fog,0,2013-01-12 16:56:00
12:56 PM,43.0,41.0,93,30.17,0.2,Calm,Calm,-,N/A,Fog,Fog,0,2013-01-12 17:56:00
1:22 PM,44.6,42.8,93,30.16,1.5,Calm,Calm,-,N/A,,Overcast,0,2013-01-12 18:22:00
1:36 PM,44.6,42.8,93,30.15,0.8,Calm,Calm,-,N/A,,Overcast,0,2013-01-12 18:36:00
1:56 PM,44.1,42.1,93,30.16,0.5,Calm,Calm,-,N/A,Fog,Fog,0,2013-01-12 18:56:00
2:03 PM,44.6,42.8,93,30.16,1.5,Calm,Calm,-,N/A,,Overcast,0,2013-01-12 19:03:00
2:05 PM,44.6,42.8,93,30.16,3.0,Calm,Calm,-,N/A,,Overcast,0,2013-01-12 19:05:00
2:46 PM,44.6,42.8,93,30.16,1.8,South,8.1,-,N/A,,Overcast,190,2013-01-12 19:46:00
2:49 PM,42.8,41.0,93,30.16,0.8,South,8.1,-,N/A,,Overcast,190,2013-01-12 19:49:00
2:56 PM,42.1,39.9,92,30.16,0.2,South,8.1,-,N/A,Fog,Fog,180,2013-01-12 19:56:00
3:50 PM,44.6,41.0,87,30.16,1.5,SE,5.8,-,N/A,,Overcast,140,2013-01-12 20:50:00
3:56 PM,44.1,42.1,93,30.17,1.5,Calm,Calm,-,N/A,,Overcast,0,2013-01-12 20:56:00
4:24 PM,44.6,42.8,93,30.16,0.8,Calm,Calm,-,N/A,,Overcast,0,2013-01-12 21:24:00
4:56 PM,44.1,42.1,93,30.17,0.2,Calm,Calm,-,N/A,Fog,Fog,0,2013-01-12 21:56:00
5:56 PM,43.0,39.9,89,30.17,0.2,ESE,3.5,-,N/A,Fog,Fog,120,2013-01-12 22:56:00
6:56 PM,44.1,42.1,93,30.17,0.2,Calm,Calm,-,N/A,Fog,Fog,0,2013-01-12 23:56:00
7:56 PM,43.0,41.0,93,30.16,0.2,South,3.5,-,N/A,Fog,Fog,170,2013-01-13 00:56:00
8:56 PM,44.1,41.0,89,30.17,0.2,Calm,Calm,-,N/A,Fog,Fog,0,2013-01-13 01:56:00
9:56 PM,44.1,41.0,89,30.17,0.5,Calm,Calm,-,N/A,Fog,Fog,0,2013-01-13 02:56:00
10:56 PM,43.0,41.0,93,30.17,0.5,Calm,Calm,-,N/A,Fog,Fog,0,2013-01-13 03:56:00
11:56 PM,44.1,42.1,93,30.17,0.5,Calm,Calm,-,N/A,Fog,Fog,0,2013-01-13 04:56:00